RH
24 20 19 17 15 20 28 27 26 25 24 23 22 20 22 20 19 19 18 18 18 17 17 16 17 21 23 22 23 30 44 50 43 58 44 46 45 39 38 35 36 33 32 28 26
19 17 16 14 17 26 28 25 24 24 23 22 22 19 18 18 20 19 16 16 16 16 15 15 16 18 24 22 21 33 47 38 37 46 41 47 42 36 35 34 34 32 31 30 30
14 11 12 16 25 28 24 23 22 22 22 21 20 18 16 19 20 19 15 14 14 14 14 14 15 19 24 23 23 34 40 36 28 29 35 44 43 35 35 39 32 31 30 31 31
10 13 16 23 29 27 23 22 21 20 20 20 19 18 16 17 21 17 16 13 13 14 14 14 16 20 25 25 26 25 31 30 28 28 35 43 39 36 34 34 31 30 30 30 30
13 18 21 26 27 25 23 22 20 19 18 18 17 17 16 16 19 18 15 14 14 14 15 15 17 20 23 26 26 28 29 29 28 30 35 37 37 39 37 34 34 30 25 25 28
15 18 25 27 25 24 22 21 20 19 17 17 17 16 16 18 17 18 17 15 16 16 16 19 19 21 23 27 28 29 29 29 28 30 30 33 32 31 26 22 27 28 29 28 25
15 20 24 24 23 22 21 20 20 19 18 17 17 17 18 17 17 17 16 16 18 16 18 18 20 19 23 26 26 27 27 27 28 28 28 29 34 39 22 22 21 22 24 26 25
16 21 22 23 23 22 21 20 20 19 19 18 17 18 18 18 18 16 17 18 19 19 18 20 21 21 24 25 27 31 31 34 29 31 29 28 36 26 19 24 23 23 23 25 25
23 20 22 23 22 22 22 20 20 19 19 19 18 18 17 18 19 18 18 18 17 19 20 21 21 22 25 32 33 37 36 34 32 32 32 33 36 26 22 26 24 22 22 23 24
24 22 23 22 22 22 22 21 18 20 20 18 19 18 18 18 19 18 18 18 17 18 19 21 24 35 38 36 28 18 30 32 38 29 36 39 42 31 27 26 24 22 22 23 23
25 23 22 23 23 23 20 20 22 23 21 17 17 18 19 19 19 17 18 18 18 20 23 22 29 30 29 35 26 21 25 25 24 25 36 42 40 33 28 31 32 27 23 22 21
25 23 24 24 23 22 20 23 17 24 22 18 19 18 19 19 18 17 18 18 19 23 21 25 30 26 21 25 24 22 23 27 25 33 39 40 37 27 25 32 27 24 19 17 18
24 24 24 23 22 23 20 20 24 25 27 20 21 19 18 19 18 18 20 19 21 23 23 26 21 21 21 21 23 24 25 26 25 27 34 41 40 30 25 30 27 24 20 18 16
24 24 24 24 27 28 24 24 24 25 31 22 22 20 21 20 18 20 20 17 21 24 22 25 23 23 23 24 25 25 23 24 28 31 32 32 38 33 26 31 31 23 21 14 13
26 25 25 25 30 29 30 24 24 26 29 18 21 21 22 21 20 22 22 20 20 21 23 25 24 26 27 25 23 24 28 28 30 37 42 41 44 36 29 22 19 22 16 12 11
28 26 26 25 29 28 25 23 28 31 29 24 24 23 23 23 22 23 22 21 24 25 27 31 25 23 24 23 22 27 25 39 53 51 54 43 43 38 25 20 22 20 16 13 11
28 29 28 26 26 28 24 24 33 37 21 25 24 26 26 25 24 26 25 26 27 24 25 28 30 26 24 24 26 26 26 36 34 53 49 43 48 38 26 25 25 24 17 15 15
22 28 29 28 27 26 26 32 32 24 34 24 25 26 27 24 24 26 29 34 30 28 35 32 28 30 26 23 24 29 27 33 30 43 38 38 41 28 25 22 19 18 16 15 13
25 24 28 29 29 27 28 36 28 27 26 27 25 30 29 26 26 28 30 34 30 32 30 32 28 30 27 24 25 30 39 32 37 40 55 40 32 22 18 17 15 17 15 12 11
27 28 29 31 31 29 35 37 28 30 26 26 24 26 30 27 29 28 28 27 28 29 25 26 33 30 30 26 28 28 29 33 43 39 42 39 37 28 20 17 18 19 16 14 12
30 30 37 38 38 31 42 41 32 27 28 28 27 28 32 28 31 31 27 27 28 29 26 26 30 28 31 35 34 36 34 37 40 50 46 55 39 25 20 18 20 20 14 14 13
30 36 45 45 41 53 47 39 31 30 31 31 31 32 32 30 32 36 36 30 30 27 28 28 35 35 28 28 29 30 31 36 38 32 59 62 36 17 16 18 21 20 16 15 15
28 38 46 41 54 55 46 42 35 33 34 33 33 37 35 34 33 36 33 35 31 28 28 29 36 41 39 32 30 31 33 31 38 44 42 38 32 19 21 20 17 18 17 17 17
30 43 52 46 45 44 44 43 41 36 36 36 35 38 40 41 41 38 36 35 34 31 32 27 39 35 43 36 31 33 33 36 34 47 33 40 28 22 21 22 20 19 20 21 20
39 45 63 66 66 57 49 46 43 40 40 39 40 43 44 46 43 49 42 40 40 39 37 39 49 45 40 36 36 36 38 35 41 31 37 31 31 26 23 23 22 23 22 22 22
48 61 64 65 63 62 59 56 56 48 46 43 45 44 47 50 43 45 42 42 44 48 43 48 53 47 56 46 47 49 48 42 39 37 36 33 35 25 25 23 25 26 26 24 24
77 61 57 58 58 70 69 58 54 49 46 43 45 48 50 50 43 40 41 40 40 46 55 54 59 58 55 46 49 61 50 40 37 41 38 39 27 26 28 29 25 20 23 26 24
Wind_Speed
7 6 6 6 8 11 8 6 4 3 4 4 4 5 4 6 5 3 3 3 3 4 4 3 2 3 2 1 1 2 4 2 5 6 5 8 7 7 7 8 13 12 11 8 4
6 6 6 8 11 10 7 5 3 2 3 2 1 4 4 5 4 2 4 5 5 5 7 5 4 4 2 1 1 2 3 7 5 5 4 8 11 10 6 9 11 18 19 16 12
5 6 8 11 11 8 7 4 2 1 2 1 2 4 6 7 5 1 7 8 8 7 8 8 6 4 2 1 1 2 5 2 3 5 6 6 9 9 8 6 18 22 26 22 19
6 8 10 11 9 6 5 3 1 0 2 2 4 6 7 6 1 4 9 10 10 8 8 8 5 3 3 2 1 1 3 3 1 3 3 4 4 7 20 17 9 12 17 20 25
6 9 11 10 7 5 3 1 1 2 3 4 6 7 8 5 6 8 8 9 9 9 8 7 6 4 3 3 1 2 2 3 4 4 5 5 9 12 22 27 29 19 16 18 23
7 9 10 8 6 4 3 2 2 3 4 5 7 8 7 6 8 9 9 8 8 6 4 3 4 4 4 2 2 1 3 4 4 3 4 4 5 3 12 15 27 30 29 27 25
8 9 8 6 5 3 3 4 3 5 6 6 7 8 9 11 9 10 8 7 5 5 3 3 1 1 3 2 2 1 4 4 7 5 3 2 8 11 28 21 16 18 28 29 28
8 6 7 5 4 3 3 4 5 5 7 8 8 8 7 9 9 8 7 5 4 4 3 3 2 1 2 6 3 4 3 4 0 5 1 4 11 9 11 20 27 23 24 28 30
7 7 6 5 4 3 3 4 5 6 8 8 7 6 6 6 6 6 6 5 5 3 3 3 2 2 3 3 4 5 4 3 8 9 2 4 9 6 7 11 19 22 24 27 29
5 5 4 4 5 3 5 5 7 7 9 7 9 5 7 3 4 6 7 6 4 4 3 2 1 3 3 3 4 3 4 5 6 3 3 4 18 18 26 20 24 25 28 30 32
4 3 3 3 3 4 5 5 6 4 9 7 3 6 4 5 7 7 6 5 5 2 1 2 3 6 8 7 3 2 3 6 5 4 5 9 15 21 27 22 29 36 35 33 35
3 3 1 3 3 4 5 3 2 2 6 11 14 13 12 10 5 5 7 2 0 2 0 5 6 7 3 2 4 4 4 7 6 2 5 8 18 21 21 16 27 33 34 34 33
3 3 2 3 3 3 1 0 3 4 2 4 6 7 5 5 4 3 3 1 1 2 4 6 4 3 3 2 2 3 5 5 6 5 4 8 9 6 5 6 18 26 29 29 31
3 2 2 3 2 2 1 2 5 5 5 4 1 2 3 3 3 3 3 2 0 3 2 5 2 1 2 4 6 4 4 3 4 4 4 4 7 6 7 10 7 21 24 28 28
5 3 3 3 2 2 2 2 6 3 3 1 2 2 3 4 4 1 3 2 3 2 3 7 2 3 3 5 5 6 1 1 1 1 4 2 0 8 4 8 10 12 26 26 26
5 5 5 4 2 1 1 2 2 5 5 1 1 1 1 2 2 0 1 1 1 1 2 6 1 4 5 2 1 1 2 3 4 2 2 3 3 6 4 6 8 6 15 27 26
7 7 5 3 2 1 1 0 5 3 3 1 1 1 1 2 3 1 1 1 3 3 4 5 3 0 2 2 2 4 4 4 5 3 6 2 2 10 13 12 7 12 29 16 19
7 7 6 5 3 2 1 4 2 3 5 2 1 1 2 1 2 1 1 3 2 3 0 0 6 3 2 3 3 3 5 4 5 3 5 1 6 7 7 14 14 24 24 23 26
5 6 7 6 5 2 2 2 6 5 1 1 2 1 3 1 1 3 3 3 4 8 6 3 5 0 0 1 2 2 3 3 1 1 2 4 8 9 8 7 10 14 15 20 27
4 4 7 7 6 4 3 5 4 4 1 2 2 4 2 2 0 0 2 3 2 5 2 2 4 0 1 1 3 3 3 2 3 4 6 5 5 7 10 12 11 13 20 29 26
2 3 3 8 8 4 3 6 4 5 3 3 3 3 5 2 4 3 4 3 1 2 3 4 3 4 1 6 7 2 2 3 2 4 4 4 5 6 7 12 11 14 35 30 36
2 1 2 7 3 1 3 4 1 2 3 2 1 5 5 3 3 4 6 4 1 5 4 1 4 4 10 1 3 3 5 6 4 5 4 2 10 13 18 13 12 24 35 46 43
2 2 4 8 2 2 3 4 3 2 4 3 3 5 2 3 2 4 2 0 0 1 2 3 1 4 9 3 3 2 4 3 2 2 6 6 10 3 7 15 30 29 38 39 37
2 1 3 6 4 5 2 4 3 2 3 3 2 1 2 2 4 3 3 1 2 3 3 4 3 7 10 8 2 4 5 5 6 3 14 11 31 22 21 17 26 37 33 40 40
3 3 3 2 3 4 4 1 2 2 3 3 1 4 4 3 2 5 2 4 1 1 1 3 6 6 9 10 6 12 11 10 12 20 9 32 20 27 25 20 30 32 35 32 32
3 4 4 2 2 3 2 4 6 2 3 3 3 3 5 6 6 6 3 1 6 2 3 0 5 2 5 9 12 15 9 17 21 20 17 24 28 27 27 17 22 29 23 21 24
6 5 2 2 2 4 4 5 4 2 1 3 3 2 4 7 8 12 13 13 12 7 7 5 4 1 17 2 6 8 11 17 3 5 7 8 19 8 12 10 24 20 12 14 19
Wind_Direction
211 196 188 178 164 152 148 141 123 117 121 104 68 30 54 85 67 47 22 352 341 339 343 331 354 278 300 8 358 157 69 207 227 166 234 169 185 195 211 215 204 209 229 235 229
205 199 179 164 153 152 146 129 101 113 130 115 51 8 351 336 313 4 339 319 310 312 312 301 289 299 225 268 311 120 136 222 203 193 212 193 194 192 190 209 231 232 235 237 228
185 178 167 155 151 154 145 122 91 103 158 183 298 323 335 344 311 313 347 323 305 303 308 303 288 259 211 278 311 155 205 216 236 234 231 205 213 195 201 226 226 233 236 234 227
169 157 162 157 156 151 147 121 127 243 240 274 295 305 321 333 302 323 334 328 316 297 310 300 268 215 162 221 208 287 242 215 269 243 216 191 203 213 220 235 250 252 252 239 231
159 164 166 165 155 151 154 182 226 262 270 284 291 295 304 298 278 300 320 326 326 307 302 296 250 218 192 163 181 205 258 242 260 256 234 228 229 229 250 249 248 249 244 242 238
164 175 172 169 165 178 198 235 253 284 281 281 287 286 287 270 281 294 307 314 328 325 320 317 261 227 140 140 186 243 262 275 255 223 237 230 251 230 259 253 242 244 248 249 246
186 182 176 175 183 207 233 250 266 285 286 282 286 288 278 273 279 297 306 302 325 355 351 359 255 226 138 103 112 72 320 305 230 214 236 235 278 231 251 249 251 243 243 245 244
191 182 179 188 206 233 248 262 272 276 275 279 288 283 268 270 271 285 293 305 289 311 337 353 37 91 54 124 32 12 45 348 243 169 251 140 272 270 268 250 249 247 245 241 240
185 177 184 205 227 258 276 277 272 264 270 276 281 266 268 270 262 266 275 279 301 270 284 292 291 90 111 75 2 11 270 254 313 199 123 186 277 262 281 246 252 248 250 249 247
178 180 194 223 243 284 287 293 268 276 275 265 257 268 248 260 259 276 272 280 286 270 258 222 91 63 37 80 246 273 301 262 244 221 210 234 262 267 261 255 254 258 265 258 250
181 173 195 250 263 297 305 308 280 267 235 226 202 231 283 280 284 273 249 292 281 264 208 33 62 234 234 206 199 220 213 253 254 229 200 236 259 271 269 245 246 257 259 253 249
188 181 197 278 293 309 318 311 293 260 291 243 246 254 263 273 278 264 248 270 209 246 93 7 244 242 215 167 200 225 273 271 285 181 193 293 279 269 269 244 242 250 256 253 252
212 195 240 296 289 278 340 23 308 319 296 288 231 252 243 241 256 256 228 218 208 247 204 188 230 106 177 210 222 243 217 252 245 323 243 310 282 300 282 277 258 250 250 254 251
220 218 249 299 243 241 208 28 355 346 56 278 226 235 216 236 263 242 235 222 266 256 225 238 304 208 235 261 156 286 218 256 295 16 273 20 292 295 304 302 252 256 240 242 243
241 245 263 247 239 230 231 327 342 23 6 226 220 199 216 221 296 226 210 186 202 222 104 254 211 220 237 225 171 234 44 286 312 232 350 291 209 271 345 298 270 252 241 239 240
243 245 252 241 264 208 260 283 4 46 257 280 182 282 299 257 269 328 226 219 268 269 243 245 278 190 212 68 183 91 318 47 58 80 314 256 181 295 264 242 304 299 279 247 244
246 244 248 245 225 269 285 209 40 144 341 251 237 127 268 280 308 101 12 305 195 339 340 321 232 293 188 142 45 74 48 320 337 359 234 152 169 249 265 269 244 280 294 296 266
243 237 236 237 237 248 165 55 187 237 236 329 106 127 232 191 257 349 358 294 210 115 63 293 325 181 181 214 198 181 155 170 272 258 278 118 247 252 252 291 286 285 291 294 289
252 235 236 233 222 215 181 90 213 211 287 338 359 44 311 342 234 4 225 230 229 180 176 164 270 121 185 165 140 161 191 194 255 165 24 252 296 294 310 331 343 340 345 328 308
238 216 225 219 209 194 98 232 236 223 183 91 211 181 241 251 209 63 264 204 229 192 155 214 303 243 299 111 45 159 170 359 16 303 289 281 272 252 311 307 311 322 317 318 323
233 215 207 202 191 180 184 228 272 260 228 184 228 241 231 250 207 220 246 263 203 133 167 151 146 273 56 199 188 105 235 66 136 170 240 291 255 217 262 276 288 296 313 316 320
249 38 186 172 130 81 176 206 285 270 230 265 237 222 218 195 245 242 235 246 53 161 178 182 157 251 235 63 130 151 180 158 142 253 234 232 269 245 262 284 303 298 307 307 307
292 240 194 184 166 246 276 283 249 229 225 181 228 203 187 215 269 203 275 328 243 226 181 181 295 334 329 45 20 230 197 184 127 85 196 266 272 294 294 309 306 299 302 308 312
280 346 188 193 174 149 175 250 259 262 258 211 233 148 131 249 214 266 261 237 201 201 185 164 181 198 250 247 174 209 200 210 192 181 284 236 278 290 292 299 304 304 309 311 315
216 230 188 225 247 184 184 219 207 264 219 207 215 219 183 240 270 236 270 306 258 269 173 160 228 223 250 254 256 258 246 231 222 246 225 279 274 284 289 298 296 301 309 320 329
218 181 184 190 201 177 203 227 197 248 207 256 205 351 180 203 210 268 217 232 244 41 197 23 270 290 268 233 241 263 252 242 248 261 255 262 276 276 279 306 319 319 333 347 355
209 202 201 211 167 129 218 210 180 171 234 165 82 328 263 248 270 280 270 248 239 187 207 180 200 143 281 325 288 286 227 236 216 196 208 250 263 312 323 321 338 334 339 337 345